Weather History for KBIX - July, 2012

Change the Weather History Date:

Monday, July 30, 2012

  Actual Average Record
Temperature  
Mean Temperature 86 °F -  
Max Temperature 93 °F 90 °F 98 °F (1983)
Min Temperature 80 °F 74 °F 69 °F (1965)
Cooling Degree Days 22    
Growing Degree Days 36 (Base 50)    
Moisture  
Dew Point 71 °F    
Average Humidity 62    
Maximum Humidity 79    
Minimum Humidity 46    
Precipitation  
Precipitation 0.00 in - - ()
Sea Level Pressure  
Sea Level Pressure 29.99 in    
Wind  
Wind Speed 7 mph (SW)    
Max Wind Speed 17 mph    
Max Gust Speed 23 mph    
Visibility 10 miles    
Events Thunderstorm    
Averages and records for this station are not official NWS values.
T = Trace of Precipitation, MM = Missing Value Source: NWS Daily Summary

Daily Weather History Graph

Daily Weather History Graph

Search for Another Location

Airport or City:

Trip Planner

Search our weather history database for the weather conditions in past years. The results will help you decide how hot, cold, wet, or windy it might be!

Date:

Astronomy

Jul. 30, 2012 Rise Set
Actual Time 6:13 AM CDT 7:50 PM CDT
Civil Twilight 5:46 AM CDT 8:16 PM CDT
Nautical Twilight 5:15 AM CDT 8:48 PM CDT
Astronomical Twilight 4:42 AM CDT 9:21 PM CDT
Moon 5:49 PM CDT (7/30) 3:31 AM CDT (7/30)
Length of Visible Light 14h 29m
Length of Day
13h 37m
Waxing Gibbous, 92% of the Moon is Illuminated
Jul 30
Waxing Gibbous
Aug 1
Full
Aug 9
Last Quarter
Aug 17
New
Aug 24
First Quarter

Hourly Weather History & Observations

Time (CDT) Temp. Heat Index Dew Point Humidity Pressure Visibility Wind Dir Wind Speed Gust Speed Precip Events Conditions
12:55 AM 84.7 °F 90.4 °F 72.0 °F 65% 29.98 in 10.0 mi WSW 9.2 mph - N/A   Clear
1:55 AM 84.6 °F 90.0 °F 71.8 °F 65% 29.96 in 10.0 mi WSW 8.1 mph - N/A   Clear
2:55 AM 83.7 °F 89.4 °F 72.7 °F 69% 29.96 in 10.0 mi WSW 5.8 mph - N/A   Partly Cloudy
3:55 AM 82.4 °F 87.4 °F 72.0 °F 71% 29.96 in 10.0 mi West 4.6 mph - N/A   Clear
4:55 AM 81.7 °F 86.7 °F 72.9 °F 74% 29.97 in 10.0 mi Variable 4.6 mph - N/A   Clear
5:55 AM 81.3 °F 85.9 °F 72.5 °F 74% 29.99 in 10.0 mi Calm Calm - N/A   Clear
6:16 AM 80.6 °F 85.4 °F 73.4 °F 79% 30.00 in 10.0 mi Calm Calm - N/A   Partly Cloudy
6:55 AM 81.5 °F 86.3 °F 72.5 °F 74% 30.01 in 10.0 mi Calm Calm - N/A   Partly Cloudy
7:14 AM 82.4 °F 88.2 °F 73.4 °F 74% 30.01 in 10.0 mi Variable 4.6 mph - N/A   Mostly Cloudy
7:18 AM 82.4 °F 87.2 °F 71.6 °F 70% 30.01 in 10.0 mi Variable 4.6 mph - N/A   Scattered Clouds
7:55 AM 83.7 °F 89.2 °F 72.1 °F 68% 30.03 in 10.0 mi Variable 3.5 mph - N/A   Partly Cloudy
8:55 AM 86.5 °F 91.8 °F 70.9 °F 59% 30.04 in 10.0 mi Variable 3.5 mph - N/A   Clear
9:55 AM 89.4 °F 94.8 °F 70.2 °F 53% 30.04 in 10.0 mi Calm Calm - N/A   Clear
10:55 AM 91.4 °F 95.4 °F 67.8 °F 46% 30.04 in 10.0 mi Variable 4.6 mph - N/A   Clear
11:55 AM 91.9 °F 99.0 °F 71.4 °F 51% 30.04 in 10.0 mi SSW 10.4 mph - N/A   Clear
12:55 PM 92.1 °F 99.9 °F 72.1 °F 52% 30.02 in 10.0 mi SSW 9.2 mph - N/A   Partly Cloudy
1:55 PM 93.2 °F 100.5 °F 71.2 °F 49% 29.99 in 10.0 mi SW 10.4 mph - N/A   Clear
2:55 PM 93.0 °F 100.7 °F 71.6 °F 50% 29.95 in 10.0 mi SW 16.1 mph - N/A   Clear
3:55 PM 89.6 °F 96.6 °F 71.8 °F 56% 29.94 in 10.0 mi SW 13.8 mph - N/A   Clear
4:55 PM 88.9 °F 95.1 °F 71.4 °F 56% 29.96 in 10.0 mi WSW 10.4 mph - N/A Thunderstorm Clear
5:55 PM 89.8 °F 96.0 °F 70.9 °F 54% 29.99 in 10.0 mi SSW 9.2 mph - N/A   Clear
6:25 PM 84.2 °F 87.3 °F 68.0 °F 58% 30.00 in 10.0 mi SE 13.8 mph 19.6 mph N/A   Scattered Clouds
6:55 PM 83.8 °F 86.5 °F 67.3 °F 57% 29.99 in 10.0 mi South 16.1 mph 23.0 mph N/A Thunderstorm Clear
7:55 PM 85.1 °F 86.9 °F 65.3 °F 51% 29.98 in 10.0 mi SSW 17.3 mph - N/A   Clear
8:55 PM 84.2 °F 87.3 °F 68.0 °F 58% 29.98 in 10.0 mi SSW 8.1 mph - N/A   Clear
9:55 PM 83.8 °F 88.9 °F 71.6 °F 66% 29.99 in 10.0 mi SW 6.9 mph - N/A   Clear
10:55 PM 84.9 °F 91.4 °F 73.0 °F 67% 29.99 in 10.0 mi SW 12.7 mph - N/A   Clear
11:55 PM 85.3 °F 92.6 °F 73.8 °F 68% 29.99 in 10.0 mi SW 10.4 mph - N/A   Clear